Satellite: FALCON
Catalog number: 30776
Epoch time:      10321.91277533
Element set:    0966
Inclination:      035.4332 deg
RA of node:       190.8141 deg
Eccentricity:    0.0001019
Arg of perigee:   012.9237 deg
Mean anomaly:     347.1507 deg
Mean motion:   15.03957103 rev/day
Decay rate:      1.382e-05 rev/day^2
Epoch rev:           20321
Checksum:              258

Satellite: MAST
Catalog number: 31126
Epoch time:      10321.65502011
Element set:    0016
Inclination:      097.9211 deg
RA of node:       355.5899 deg
Eccentricity:    0.0095405
Arg of perigee:   108.5570 deg
Mean anomaly:     252.6013 deg
Mean motion:   14.53642888 rev/day
Decay rate:       1.13e-06 rev/day^2
Epoch rev:           19035
Checksum:              269

Satellite: CAPE1
Catalog number: 31130
Epoch time:      10322.61231242
Element set:      34
Inclination:      097.9224 deg
RA of node:       353.6098 deg
Eccentricity:    0.0104406
Arg of perigee:   115.1847 deg
Mean anomaly:     246.0233 deg
Mean motion:   14.52254493 rev/day
Decay rate:       5.51e-06 rev/day^2
Epoch rev:           19007
Checksum:              250

Satellite: COMPASS
Catalog number: 32787
Epoch time:      10321.30311006
Element set:    0833
Inclination:      097.8759 deg
RA of node:       023.8147 deg
Eccentricity:    0.0016054
Arg of perigee:   143.6072 deg
Mean anomaly:     216.6219 deg
Mean motion:   14.82046205 rev/day
Decay rate:       9.67e-06 rev/day^2
Epoch rev:           13817
Checksum:              281

Satellite: AAUSAT2
Catalog number: 32788
Epoch time:      10321.69596646
Element set:     822
Inclination:      097.8775 deg
RA of node:       024.3666 deg
Eccentricity:    0.0015996
Arg of perigee:   143.2394 deg
Mean anomaly:     216.9907 deg
Mean motion:   14.82201405 rev/day
Decay rate:      1.061e-05 rev/day^2
Epoch rev:           13824
Checksum:              321

Satellite: DO-64
Catalog number: 32789
Epoch time:      10321.68573126
Element set:    0840
Inclination:      097.8853 deg
RA of node:       025.0182 deg
Eccentricity:    0.0016161
Arg of perigee:   142.1017 deg
Mean anomaly:     218.1332 deg
Mean motion:   14.82438597 rev/day
Decay rate:      1.603e-05 rev/day^2
Epoch rev:           13824
Checksum:              293

Satellite: CO-66
Catalog number: 32791
Epoch time:      10322.15889224
Element set:     824
Inclination:      097.8788 deg
RA of node:       024.6503 deg
Eccentricity:    0.0016567
Arg of perigee:   139.7771 deg
Mean anomaly:     220.4675 deg
Mean motion:   14.81805108 rev/day
Decay rate:      1.001e-05 rev/day^2
Epoch rev:           13825
Checksum:              314

Satellite: RS-30
Catalog number: 32953
Epoch time:      10321.94431816
Element set:     223
Inclination:      082.4994 deg
RA of node:       294.0655 deg
Eccentricity:    0.0019784
Arg of perigee:   123.9214 deg
Mean anomaly:     236.3751 deg
Mean motion:   12.43009179 rev/day
Decay rate:        1.0e-07 rev/day^2
Epoch rev:           11284
Checksum:              284

Satellite: TACSAT-3
Catalog number: 35001
Epoch time:      10321.54306924
Element set:    0444
Inclination:      040.4553 deg
RA of node:       011.8194 deg
Eccentricity:    0.0021264
Arg of perigee:   071.0230 deg
Mean anomaly:     289.2888 deg
Mean motion:   15.43644042 rev/day
Decay rate:      9.732e-05 rev/day^2
Epoch rev:           08432
Checksum:              262

Satellite: PHARMSAT
Catalog number: 35002
Epoch time:      10321.51784220
Element set:    0411
Inclination:      040.4683 deg
RA of node:       009.5445 deg
Eccentricity:    0.0023523
Arg of perigee:   074.2577 deg
Mean anomaly:     286.0831 deg
Mean motion:   15.43969320 rev/day
Decay rate:      8.813e-05 rev/day^2
Epoch rev:           08434
Checksum:              268

Satellite: HAWKSAT1
Catalog number: 35003
Epoch time:      10321.48804981
Element set:    0445
Inclination:      040.4571 deg
RA of node:       358.8917 deg
Eccentricity:    0.0021924
Arg of perigee:   096.8620 deg
Mean anomaly:     263.4693 deg
Mean motion:   15.49157243 rev/day
Decay rate:     2.1529e-04 rev/day^2
Epoch rev:           08446
Checksum:              307

Satellite: CP6
Catalog number: 35004
Epoch time:      10321.49908971
Element set:    0446
Inclination:      040.4607 deg
RA of node:       356.2878 deg
Eccentricity:    0.0021029
Arg of perigee:   104.0231 deg
Mean anomaly:     256.2930 deg
Mean motion:   15.50837301 rev/day
Decay rate:     2.7799e-04 rev/day^2
Epoch rev:           08448
Checksum:              296

Satellite: AEROCUB3
Catalog number: 35005
Epoch time:      10322.41035837
Element set:     526
Inclination:      040.4649 deg
RA of node:       334.0078 deg
Eccentricity:    0.0023167
Arg of perigee:   143.7968 deg
Mean anomaly:     216.4434 deg
Mean motion:   15.72052859 rev/day
Decay rate:    2.02057e-03 rev/day^2
Epoch rev:            8481
Checksum:              288

Satellite: METEOR-M
Catalog number: 35865
Epoch time:      10322.74070770
Element set:     846
Inclination:      098.7388 deg
RA of node:       015.2733 deg
Eccentricity:    0.0002080
Arg of perigee:   301.4013 deg
Mean anomaly:     058.6925 deg
Mean motion:   14.21832913 rev/day
Decay rate:       1.76e-06 rev/day^2
Epoch rev:            6068
Checksum:              284

